Regional Weather Roundup
Issued by NWS

Home | Current Version | Previous Version | Text Only | Print | Product List | Glossary On
Versions: 1 2 3 4 5 6 7 8 9 10 11 12 13 14 15 16 17 18 19 20 21 22 23 24 25 26 27 28 29 30 31 32 33 34 35 36 37 38 39 40 41 42 43 44 45 46 47 48 49 50
000
ASUS43 KMPX 101610
RWRMN
WEATHER ROUNDUP FOR MINNESOTA
NATIONAL WEATHER SERVICE TWIN CITIES/CHANHASSEN MN
1000 AM CST WED FEB 10 2016


NOTE: "FAIR" INDICATES FEW OR NO CLOUDS BELOW 12,000 FEET WITH NO
SIGNIFICANT WEATHER AND/OR OBSTRUCTIONS TO VISIBILITY. N/A MEANS
CURRENT SKY AND/OR WEATHER CONDITIONS ARE NOT AVAILABLE.

MNZ060>063-068>070-101700-
   Twin Cities Metro

CITY           SKY/WX    TMP DP  RH WIND       PRES   REMARKS
TWIN CITIES    CLOUDY     6  -6  57 N8        30.14S WCI  -7
ST PAUL        CLOUDY     4  -5  66 NW7       30.16R WCI  -8
CRYSTAL        CLOUDY     5  -5  63 N6        30.13R WCI  -6
BLAINE         PTSUNNY    5  -2  72 N5        30.13  WCI  -4
LAKEVILLE      CLOUDY     3  -2  78 NE3       30.12R
EDEN PRAIRIE   CLOUDY     7  -4  60 NE3       30.12S
SOUTH ST PAUL  MOSUNNY    6  -5  62 CALM      30.14S
LAKE ELMO      FAIR       5  -4  66 N3        30.14R
$$
MNZ001>005-007-008-013>017-022>024-027-028-101700-
   Northwest Minnesota

CITY           SKY/WX    TMP DP  RH WIND       PRES   REMARKS
BEMIDJI        CLOUDY    -4 -10  78 CALM      30.09F
HALLOCK        CLOUDY     3  -6  66 E9        30.15R WCI -11
ROSEAU         CLOUDY    -8 -13  77 E6        30.16R WCI -21
WARROAD        CLOUDY   -11 -17  77 NE7       30.16R WCI -26
THIEF RVR FALL CLOUDY     0  -6  78 E9        30.13R WCI -16
CROOKSTON      CLOUDY     3  -2  78 E8        30.14S WCI -10
FOSSTON          N/A      3  -2  78 E3        30.10S
DETROIT LAKES  CLOUDY     5   0  78 E6        30.08R WCI  -6
MOORHEAD       MIX PCPN   7   1  78 E5        30.10S WCI  -2
PARK RAPIDS    CLOUDY     0  -8  69 E5        30.08R WCI -10
MAHNOMEN       CLOUDY     2  -4  73 E6        30.09S WCI  -9
$$
MNZ006-009>011-018-025>026-101700-
   North Central Minnesota

CITY           SKY/WX    TMP DP  RH WIND       PRES   REMARKS
BAUDETTE       CLOUDY   -12 -17  78 CALM      30.14S
FLAG ISLAND    CLOUDY   -13 -18  77 CALM      30.17R
INTL FALLS     CLOUDY    -9 -15  75 CALM      30.16R
WASKISH        CLOUDY    -8 -11  84 E6        30.13S WCI -21
LONGVILLE      CLOUDY    -2  -9  71 CALM      30.10S
GRAND RAPIDS   CLOUDY    -8 -15  71 N5        30.10R WCI -19
CRANE LAKE     CLOUDY   -13 -17  84 NW1       30.16S
ORR            CLOUDY   -11 -18  70 CALM      30.09R
COOK           CLOUDY    -8 -13  77 NE5       30.10S WCI -19
WALKER         PTSUNNY   -4 -10  73 SE3       30.10S
$$
MNZ012-019>021-037-101700-
   Northeast Minnesota

CITY           SKY/WX    TMP DP  RH WIND       PRES   REMARKS
DULUTH         MOSUNNY   -2 -11  65 N6        30.06R WCI -14
ELY            SUNNY     -9 -17  70 NE6       30.08S WCI -23
HIBBING        CLOUDY   -10 -13  86 NW3       30.09R
EVELETH        SUNNY     -6 -13  71 NE5       30.09R WCI -17
DULUTH HARBOR    N/A      3  -2  78 N3        30.16R
TWO HARBORS    SUNNY      5  -9  51 N6        30.06S WCI  -6
SILVER BAY     SUNNY      1 -13  51 N7        30.07S WCI -11
GRAND MARAIS     N/A      0 -12  57 CALM      30.14R
G MARAIS ARPRT SUNNY     -8 -18  59 NW8       29.99R WCI -23
$$
MNZ029>031-032-039>041-046>048-054>057-064-101700-
   West Central Minnesota

CITY           SKY/WX    TMP DP  RH WIND       PRES   REMARKS
FERGUS FALLS   CLOUDY     7   0  72 SE7       30.11S WCI  -5
WHEATON        LGT SNOW   9   5  85 E14       30.09F WCI  -8
MORRIS         LGT SNOW   7   1  78 SE9       30.07R WCI  -7
ALEXANDRIA     CLOUDY     4  -4  69 E9        30.06S WCI -10
WADENA         CLOUDY     1  -6  71 E6        30.08S WCI -10
GLENWOOD       CLOUDY     5  -2  72 E8        30.07S WCI  -8
APPLETON       LGT SNOW   9   3  78 E8        30.09R WCI  -4
BENSON         FLURRIES   9   1  72 SE7       30.09R WCI  -3
ORTONVILLE     LGT SNOW   9   1  72 SE10      30.06F WCI  -6
MADISON        LGT SNOW  10   5  79 SE10      30.08R WCI  -3
WILLMAR        FAIR       9   1  72 E8        30.09S WCI  -4
$$
MNZ033>034-036-042>043-049>051-058-059-101700-
   Central Minnesota

CITY           SKY/WX    TMP DP  RH WIND       PRES   REMARKS
ST CLOUD       CLOUDY     3  -5  69 CALM      30.11S
SAUK CENTRE    PTSUNNY    4  -4  71 E7        30.08F WCI  -9
PAYNESVILLE    CLOUDY     6  -2  70 NE8       30.09S WCI  -7
AITKIN         CLOUDY     0 -11  60 E6        30.09F WCI -12
PINE RIVER     CLOUDY    -2  -9  71 CALM      30.14R
BRAINERD       PTSUNNY   -2  -9  72 CALM      30.10F
STAPLES        CLOUDY     0  -6  78 CALM      30.09S
LONG PRAIRIE   CLOUDY     3  -4  72 NE5       30.08S WCI  -6
LITTLE FALLS   CLOUDY     3  -6  66 CALM      30.11F
LITCHFIELD     CLOUDY     7   0  72 E3        30.10F
BUFFALO        CLOUDY     5  -4  66 NE3       30.13S
MAPLE LAKE     CLOUDY     6  -1  72 NE6       30.12F WCI  -5
$$
MNZ037-044-045-052-053-101700-
   East Central Minnesota

CITY           SKY/WX    TMP DP  RH WIND       PRES   REMARKS
PRINCETON      MOSUNNY    3  -6  66 CALM      30.12S
MORA           CLOUDY     1  -8  66 E5        30.14S WCI  -8
CAMBRIDGE      MOSUNNY    1  -8  66 CALM      30.12R
RUSH CITY      CLOUDY     0  -8  70 N3        30.14S
MOOSE LAKE     CLOUDY    -2  -9  71 N6        30.11S WCI -14
HINCKLEY       FAIR       0  -8  71 NE3       30.13S
CLOQUET        CLOUDY    -4 -11  71 N6        30.09R WCI -16
MCGREGOR       CLOUDY    -4  -9  77 NW3       30.11S
$$
MNZ071>073-080-081-089-090-097-098-101700-
   Southwest Minnesota

CITY           SKY/WX    TMP DP  RH WIND       PRES   REMARKS
MONTEVIDEO     LGT SNOW   9   3  78 SE8       30.10R WCI  -4
GRANITE FALLS  LGT SNOW  10   6  81 E6        30.11R WCI   1
CANBY          LGT SNOW  13   9  83 SE9       30.07R WCI   1
MARSHALL       FLURRIES   9   4  80 SE12      30.07R WCI  -6
REDWOOD FALLS  LGT SNOW   8   2  76 E5        30.09S WCI   0
OLIVIA         LGT SNOW  10   3  72 SE5       30.09S WCI   2
PIPESTONE      LGT SNOW  14   5  67 SE15      29.96F WCI  -1
WINDOM         LGT SNOW   9   3  78 E7        30.04S WCI  -3
WORTHINGTON    CLOUDY     9   3  78 E13       30.02S VSB 1   WCI  -7
JACKSON        LGT SNOW  10   5  79 E8        30.04R WCI  -1
TRACY          LGT SNOW  10   6  84 E9        30.05F WCI  -4
SLAYTON        LGT SNOW   9   7  91 E9        30.01S WCI  -4
$$
MNZ065>067-074>077-082>085-091>093-101700-
   South Central Minnesota

CITY           SKY/WX    TMP DP  RH WIND       PRES   REMARKS
MANKATO        CLOUDY     7  -2  66 E6        30.10S WCI  -3
NEW ULM        CLOUDY     7   0  72 E6        30.10S WCI  -3
ST JAMES       FLURRIES   9   3  78 E6        30.10S WCI  -1
FAIRMONT       CLOUDY     7   1  78 E6        30.07S WCI  -3
GLENCOE        CLOUDY     7   0  71 NE6       30.11S WCI  -3
FARIBAULT        N/A      7  -2  66 N5        30.11S WCI  -2
OWATONNA       CLOUDY     5  -2  72 NE5       30.08F WCI  -4
WASECA         CLOUDY     7   0  72 NE6       30.10F WCI  -3
ALBERT LEA     CLOUDY     7   0  72 NE3       30.07S
$$
MNZ078>079-086>088-094>096-101700-
   Southeast Minnesota

CITY           SKY/WX    TMP DP  RH WIND       PRES   REMARKS
ROCHESTER      CLOUDY     3  -3  76 NW7       30.07S WCI  -9
RED WING       MOSUNNY    3  -6  66 N5        30.13F WCI  -6
STANTON        CLOUDY     6  -3  67 CALM      30.11F
DODGE CENTER   CLOUDY     7  -2  66 N6        30.06F WCI  -3
WINONA         CLOUDY     9   0  66 NW7       30.15R WCI  -3
AUSTIN         CLOUDY     5  -2  72 N7        30.07S WCI  -7
PRESTON        CLOUDY     2  -5  72 NW6       30.07S WCI  -9
$$
ABBREVIATIONS USED IN REMARKS
   TC - TEMPERATURES IN CELSIUS
  WCI - WIND CHILL INDEX
   HX - HEAT INDEX
  VSB - VISIBILITY
$$



USA.gov is the U.S. government's official web portal to all federal, state and local government web resources and services.